Alliance, NE

12:47 PM MST on November 20, 2017 (GMT -0700)
Alliance Municipal

Weather History for KAIA - August, 2014

Change the Weather History Date:

Saturday, August 16, 2014

  Actual Average Record
Temperature  
Mean Temperature 73 °F 71 °F  
Max Temperature 90 °F 87 °F 105 °F (2002)
Min Temperature 55 °F 55 °F 44 °F (2001)
Degree Days  
Heating Degree Days 0 1  
Month to date heating degree days 0 5  
Since 1 June heating degree days 126 110  
Since 1 July heating degree days 27 17  
Cooling Degree Days 8 6  
Month to date cooling degree days 119 119  
Year to date cooling degree days 391 451  
Since 1 June cooling degree days 377 441  
Growing Degree Days 22 (Base 50)    
Moisture  
Dew Point 57 °F    
Average Humidity 62    
Maximum Humidity 93    
Minimum Humidity 31    
Precipitation  
Precipitation T in 0.05 in 1.33 in (2010)
Month to date precipitation 0.39 0.91  
Year to date precipitation 12.74 11.62  
Sea Level Pressure  
Sea Level Pressure 29.92 in    
Wind  
Wind Speed 6 mph (NE)    
Max Wind Speed 12 mph    
Max Gust Speed 15 mph    
Visibility 10 miles    
Events Thunderstorm    
T = Trace of Precipitation, MM = Missing Value Source: NWS Daily Summary

Daily Weather History Graph

Daily Weather History Graph

Search for Another Location

Airport or City:

Trip Planner

Search our weather history database for the weather conditions in past years. The results will help you decide how hot, cold, wet, or windy it might be!

Date:

Astronomy

Aug. 16, 2014 Rise Set
Actual Time 6:00 AM MDT 7:50 PM MDT
Civil Twilight 5:30 AM MDT 8:19 PM MDT
Nautical Twilight 4:53 AM MDT 8:56 PM MDT
Astronomical Twilight 4:13 AM MDT 9:35 PM MDT
Moon 11:27 PM MDT (8/16) 12:55 PM MDT (8/16)
Length of Visible Light 14h 49m
Length of Day
13h 50m
Waning Gibbous, 58% of the Moon is Illuminated
Aug 16
Waning Gibbous
Aug 17
Last Quarter
Aug 25
New
Sep 2
First Quarter
Sep 8
Full

Hourly Weather History & Observations

Time (MDT) Temp. Heat Index Dew Point Humidity Pressure Visibility Wind Dir Wind Speed Gust Speed Precip Events Conditions
12:53 AM 60.1 °F - 55.9 °F 86% 29.88 in 10.0 mi Calm Calm - N/A   Clear
1:53 AM 61.0 °F - 57.9 °F 90% 29.88 in 10.0 mi WNW 3.5 mph - N/A   Clear
2:53 AM 55.9 °F - 54.0 °F 93% 29.89 in 10.0 mi West 3.5 mph - N/A   Clear
3:53 AM 55.0 °F - 54.0 °F 96% 29.89 in 10.0 mi West 6.9 mph - N/A   Clear
4:53 AM 55.9 °F - 54.0 °F 93% 29.90 in 10.0 mi NNE 4.6 mph - N/A   Clear
5:53 AM 57.0 °F - 55.9 °F 96% 29.91 in 10.0 mi NE 8.1 mph - N/A   Clear
6:53 AM 62.1 °F - 59.0 °F 90% 29.93 in 10.0 mi Calm Calm - N/A   Clear
7:53 AM 68.0 °F - 60.1 °F 76% 29.94 in 10.0 mi NE 5.8 mph - N/A   Clear
8:53 AM 73.0 °F - 60.1 °F 64% 29.96 in 10.0 mi Variable 5.8 mph - N/A   Clear
9:53 AM 79.0 °F - 59.0 °F 50% 29.96 in 10.0 mi NNE 4.6 mph - N/A   Clear
10:53 AM 82.0 °F 82.0 °F 57.9 °F 44% 29.95 in 10.0 mi North 6.9 mph - N/A   Clear
11:53 AM 84.0 °F 83.8 °F 59.0 °F 43% 29.95 in 10.0 mi North 6.9 mph - N/A   Clear
12:53 PM 87.1 °F 86.5 °F 59.0 °F 39% 29.93 in 10.0 mi North - - N/A   Clear
1:53 PM 89.1 °F 87.7 °F 57.0 °F 34% 29.91 in 10.0 mi North 8.1 mph - N/A   Clear
2:53 PM 86.0 °F 84.7 °F 55.9 °F 36% 29.92 in 10.0 mi North 3.5 mph - N/A   Clear
3:01 PM 86.0 °F 84.7 °F 55.9 °F 36% 30.04 in 10.0 mi NE 3.5 mph - N/A Thunderstorm Clear
3:31 PM 84.9 °F 83.7 °F 55.9 °F 37% 30.03 in 10.0 mi Calm Calm - N/A   Partly Cloudy
3:53 PM 86.0 °F 84.9 °F 57.0 °F 37% 29.91 in 10.0 mi North 4.6 mph - 0.00 in   Scattered Clouds
4:53 PM 88.0 °F 86.5 °F 55.9 °F 34% 29.89 in 10.0 mi Variable 4.6 mph - N/A   Clear
5:53 PM 88.0 °F 85.9 °F 54.0 °F 31% 29.88 in 10.0 mi East 5.8 mph - N/A   Clear
6:53 PM 84.9 °F 83.7 °F 55.9 °F 37% 29.88 in 10.0 mi East 10.4 mph - N/A   Clear
7:53 PM 75.9 °F - 57.0 °F 52% 29.89 in 10.0 mi East 6.9 mph - N/A   Clear
8:53 PM 72.0 °F - 55.9 °F 57% 29.90 in 10.0 mi ESE 10.4 mph - N/A   Clear
9:53 PM 70.0 °F - 55.0 °F 59% 29.90 in 10.0 mi ESE 9.2 mph - N/A   Clear
10:53 PM 66.0 °F - 55.0 °F 68% 29.92 in 10.0 mi ESE 4.6 mph - N/A   Clear
11:53 PM 64.0 °F - 55.0 °F 73% 29.94 in 10.0 mi Calm Calm - N/A   Clear